EW7604 Weather Reports


time (UTC)temp
F
wind
direction
speed
knots
gust
knots
rain 1hr
in
rain 24hr
in
rain mn
in
humidity
%
barometer
mb
20260505194521 58 26 1.7 3.5 0.00 0.00 0.00 82 1016.3
20260505193021 57 34 1.7 3.5 0.00 0.00 0.00 81 1016.3
20260505191527 58 55 0.9 5.2 0.00 0.00 0.00 81 1016.4
20260505190019 58 58 0.9 3.5 0.00 0.00 0.00 80 1016.3
20260505184519 58 52 1.7 3.5 0.00 0.00 0.00 81 1016.3
20260505183020 58 343 1.7 3.5 0.00 0.00 0.00 79 1016.2
20260505181521 58 41 0.9 3.5 0.00 0.00 0.00 81 1016.2
20260505180012 57 52 0.9 2.6 0.00 0.00 0.00 81 1016.1
20260505174510 57 33 0.9 3.5 0.00 0.00 0.00 82 1016.0
20260505173012 56 138 0.9 2.6 0.00 0.00 0.00 83 1015.9
20260505171508 56 138 0.9 2.6 0.00 0.00 0.00 83 1015.9
20260505170005 55 188 0.0 1.7 0.00 0.00 0.00 83 1015.8
20260505164503 55 188 0.0 2.6 0.00 0.00 0.00 84 1015.8
20260505163003 55 260 0.9 2.6 0.00 0.00 0.00 84 1015.7
20260505161610 54 263 0.0 0.9 0.00 0.00 0.00 86 1015.6
20260505153054 53 190 0.0 2.6 0.00 0.00 0.00 88 1015.6
20260505151554 53 190 0.0 1.7 0.00 0.00 0.00 88 1015.6
20260505124530 51 203 0.0 0.9 0.00 0.00 0.00 91 1014.5
20260505123031 51 204 0.0 0.9 0.00 0.00 0.00 91 1014.5
20260505121534 51 203 0.0 0.0 0.00 0.00 0.00 91 1014.5
20260505120028 51 203 0.0 0.9 0.00 0.00 0.00 91 1014.4
20260505114526 51 204 0.0 0.9 0.00 0.00 0.00 91 1014.4
20260505113025 51 203 0.0 1.7 0.00 0.00 0.00 91 1014.3
20260505111524 51 232 0.0 2.6 0.00 0.00 0.00 91 1014.3
20260505101517 51 167 0.9 1.7 0.00 0.00 0.00 92 1013.9
20260505100017 51 167 0.0 2.6 0.00 0.00 0.00 92 1013.8
20260505094511 50 210 0.0 1.7 0.00 0.00 0.00 93 1013.9
20260505093011 50 258 0.0 3.5 0.00 0.00 0.00 93 1013.7
20260505091510 49 254 0.0 2.6 0.00 0.00 0.00 92 1013.7
20260505090017 49 255 0.0 2.6 0.00 0.00 0.00 92 1013.6
20260505084508 49 171 0.0 1.7 0.00 0.00 0.00 92 1013.6
20260505083006 49 170 0.0 0.9 0.00 0.00 0.00 92 1013.6
20260505081506 49 170 0.0 0.9 0.00 0.00 0.00 91 1013.5
20260505080011 50 170 0.0 1.7 0.00 0.00 0.00 91 1013.3
20260505074502 50 169 0.0 3.5 0.00 0.00 0.00 91 1013.3
20260505073105 50 161 0.0 1.7 0.00 0.00 0.00 91 1013.2
20260505071557 50 161 0.9 4.3 0.00 0.00 0.00 90 1013.0
20260505070055 50 147 0.0 2.6 0.00 0.00 0.00 90 1012.8
20260505064555 51 157 0.9 4.3 0.00 0.00 0.00 90 1012.8
20260505063053 51 157 0.0 2.6 0.00 0.00 0.00 89 1012.7
20260505061553 51 159 0.0 1.7 0.00 0.00 0.00 89 1012.7
20260505060051 52 261 0.0 6.1 0.00 0.00 0.00 88 1012.6
20260505054556 52 261 0.0 1.7 0.00 0.00 0.00 88 1012.7
20260505053050 53 259 0.0 1.7 0.00 0.00 0.00 87 1012.6
20260505051550 53 235 0.0 2.6 0.00 0.00 0.00 86 1012.6
20260505041549 55 306 1.7 7.8 0.00 0.00 0.00 84 1011.6
20260505040047 55 271 2.6 10.4 0.00 0.00 0.00 83 1011.3
20260505034547 56 296 3.5 11.3 0.00 0.00 0.00 81 1011.1
20260505033045 57 240 2.6 8.7 0.00 0.00 0.00 79 1011.0
20260505031554 58 225 1.7 7.8 0.00 0.00 0.00 77 1010.8
20260505030046 59 342 4.3 11.3 0.00 0.00 0.00 75 1010.6
20260505024549 61 279 1.7 8.7 0.00 0.00 0.00 73 1010.4
20260505023046 62 338 1.7 5.2 0.00 0.00 0.00 71 1010.3
20260505021541 64 303 2.6 10.4 0.00 0.00 0.00 70 1010.4
20260505020040 65 250 1.7 3.5 0.00 0.00 0.00 68 1010.4
20260505014559 67 241 0.9 7.0 0.00 0.00 0.00 67 1010.4
20260505013038 68 259 0.0 4.3 0.00 0.00 0.00 66 1010.4
20260505011548 70 243 0.9 6.1 0.00 0.00 0.00 65 1010.5
20260505010037 70 185 0.0 5.2 0.00 0.00 0.00 66 1010.6
20260505004536 71 202 0.9 7.0 0.00 0.00 0.00 66 1010.5
20260505003036 71 184 0.9 4.3 0.00 0.00 0.00 66 1010.5
20260505001541 72 259 1.7 5.2 0.00 0.00 0.00 63 1010.5
20260505000033 72 212 0.9 3.5 0.00 0.00 0.00 63 1010.6
20260504234531 71 144 1.7 6.1 0.00 0.00 0.00 66 1010.6
20260504233028 71 129 0.9 4.3 0.00 0.00 0.00 66 1010.8
20260504231527 70 143 1.7 7.0 0.00 0.00 0.00 68 1010.8
20260504230027 70 152 2.6 7.8 0.00 0.00 0.00 67 1011.0
20260504224534 70 184 1.7 6.1 0.00 0.00 0.00 67 1011.0
20260504223024 70 152 1.7 5.2 0.00 0.00 0.00 69 1011.2
20260504221524 69 169 1.7 4.3 0.00 0.00 0.00 69 1011.3
20260504220022 70 131 0.0 6.1 0.00 0.00 0.00 66 1011.5
20260504214525 69 155 2.6 6.1 0.00 0.00 0.00 69 1011.7
20260504213021 68 194 1.7 6.1 0.00 0.00 0.00 72 1011.7
20260504211517 67 167 1.7 7.8 0.00 0.00 0.00 72 1011.9
20260504210027 67 121 1.7 6.1 0.00 0.00 0.00 74 1012.0
20260504204527 67 254 1.7 7.0 0.00 0.00 0.00 71 1012.3
20260504203015 66 186 0.9 5.2 0.00 0.00 0.00 72 1012.4
20260504201513 66 161 0.9 6.1 0.00 0.00 0.00 70 1012.4
20260504200012 65 232 0.9 6.1 0.00 0.00 0.00 74 1012.4